Regional Weather Roundup
Issued by NWS

Home | Current Version | Previous Version | Graphics & Text | Print | Product List | Glossary On
Versions: 1 2 3 4 5 6 7 8 9 10 11 12 13 14 15 16 17 18 19 20 21 22 23 24 25 26 27 28 29 30 31 32 33 34 35 36 37 38 39 40 41 42 43 44 45 46 47 48 49 50
000
ASUS43 KMKX 231920
RWRWI

WISCONSIN REGIONAL WEATHER ROUNDUP
NATIONAL WEATHER SERVICE MILWAUKEE/SULLIVAN WI
100 PM CST TUE JAN 23 2018

NOTE: "FAIR" INDICATES FEW OR NO CLOUDS BELOW 12,000 FEET WITH NO
SIGNIFICANT WEATHER AND/OR OBSTRUCTIONS TO VISIBILITY.

WIZ001-002-006>008-014>016-023>028-232000-
NORTHWEST WISCONSIN

CITY           SKY/WX    TMP DP  RH WIND       PRES   REMARKS
SUPERIOR ARPT  FAIR      19   6  56 W6        30.08R WCI  11
ASHLAND        CLOUDY    22  15  75 N7        30.03R WCI  13
HAYWARD        CLOUDY    21  13  71 VRB6      30.00R WCI  13
SIREN          FAIR      19   8  61 NW8       30.06R WCI   9
CUMBERLAND     CLOUDY    18  10  73 NW12      30.02R WCI   5
RICE LAKE      FLURRIES  19  13  79 NW7       30.04R WCI  10
CHETEK         CLOUDY    19  15  81 NW8       30.02R WCI   9
LADYSMITH      CLOUDY    22  16  76 N9        30.00R WCI  12
EAU CLAIRE     CLOUDY    20  15  81 NW10      30.01R WCI   9
MENOMONIE      CLOUDY    22  13  70 N7        30.04R WCI  13
NEW RICHMOND   FAIR      21  10  63 NW9       30.04R WCI  11
OSCEOLA        FAIR      21  10  64 NW9       30.09R WCI  10
$$

WIZ003>005-009-010-017-018-232000-
NORTH CENTRAL WISCONSIN

CITY           SKY/WX    TMP DP  RH WIND       PRES   REMARKS
MANITOWISH WTR CLOUDY    18  17  96 N6        29.92R WCI  10
ARBOR VITAE    CLOUDY    20  16  84 N12       29.91R WCI   8
WOODRUFF       CLOUDY    20  16  84 N12       29.91R WCI   8
RHINELANDER    CLOUDY    21  15  78 N10G17    29.90R WCI  10
EAGLE RIVER    CLOUDY    19  15  88 N17       29.89R WCI   3
LAND O LAKES   FLURRIES  18  16  90 NW8       29.91R WCI   8
PHILLIPS       CLOUDY    19  15  84 N10G16    29.94R WCI   8
TOMAHAWK       CLOUDY    20  15  79 N8        29.92R WCI  11
MEDFORD        CLOUDY    20  15  78 N14G20    29.90F WCI   7
MERRILL        CLOUDY    22  16  76 N14       29.92R WCI   9
$$

WIZ029-030-035-036-043>047-232000-
CENTRAL WISCONSIN

CITY           SKY/WX    TMP DP  RH WIND       PRES   REMARKS
WAUSAU         CLOUDY    23  16  74 NW14G21   29.88R WCI  11
MOSINEE        PTSUNNY   23  19  86 NW14G20   29.90R WCI  11
MARSHFIELD     CLOUDY    23  18  81 NW17      29.90R WCI   9
STEVENS POINT  CLOUDY    23  19  82 N13       29.90R WCI  11
WAUPACA        CLOUDY    30  20  68 N10       29.89S WCI  21
WAUTOMA        CLOUDY    27  20  75 NW13G18   29.91R WCI  16
WISC RAPIDS    NOT AVBL
CAMP DOUGLAS   CLOUDY    25  21  86 NW14G21   29.94R WCI  13
$$

WIZ011>013-019>022-031-037>040-048>050-232000-
NORTHEAST WISCONSIN

CITY           SKY/WX    TMP DP  RH WIND       PRES   REMARKS
ANTIGO         CLOUDY    21  17  83 N16       29.87R WCI   7
SHAWANO        CLOUDY    29  20  69 NW13      29.87S WCI  19
OCONTO         CLOUDY    27  20  76 N10G17    29.86R WCI  17
STURGEON BAY   CLOUDY    27  22  81 N17G26    29.84R WCI  14
GREEN BAY      CLOUDY    28  22  78 N16       29.87R WCI  16
MANITOWOC      CLOUDY    27  22  81 NW22G29   29.83R WCI  13
APPLETON       CLOUDY    27  19  74 NW12      29.85R WCI  16
CLINTONVILLE   CLOUDY    28  19  69 N9        29.88R WCI  20
OSHKOSH        CLOUDY    27  21  78 NW13      29.86R WCI  16
$$

WIZ032>034-041-042-053>061-232000-
SOUTHWEST WISCONSIN

CITY           SKY/WX    TMP DP  RH WIND       PRES   REMARKS
LA CROSSE      CLOUDY    25  18  74 N16       30.02R WCI  12
SPARTA         CLOUDY    24  20  87 W9        29.99S WCI  14
VIROQUA        CLOUDY    23  22  95 NW10G18   29.95R WCI  12
BOSCOBEL       CLOUDY    28  21  75 N8        29.99R WCI  20
PRAIRIE DU CHI CLOUDY    26  20  79 NW8       30.00R WCI  17
PLATTEVILLE    CLOUDY    28  27  95 NW12      29.95R WCI  18
$$

WIZ056-057-062-063-064-067-068-232000-
SOUTH CENTRAL WISCONSIN

CITY           SKY/WX    TMP DP  RH WIND       PRES   REMARKS
REEDSBURG      CLOUDY    25  22  91 N10       29.93R WCI  14
BARABOO/DELLS  CLOUDY    24  21  87 NW9G17    29.92R WCI  15
LONE ROCK      CLOUDY    27  22  81 NW13G20   29.96R WCI  16
MINERAL POINT  CLOUDY    28  28 100 NW14G22   29.92R WCI  17
MADISON        CLOUDY    26  22  84 NW17G25   29.91R WCI  13
MIDDLETON      CLOUDY    28  24  86 NW16      29.91R WCI  16
WATERTOWN      CLOUDY    27  25  89 NW12G18   29.88R WCI  17
MONROE         CLOUDY    28  25  86 NW16      29.90R WCI  17
JANESVILLE     CLOUDY    30  30 100 NW12G21   29.88R WCI  21
$$

WIZ051-052-058>065-066-070>072-232000-
SOUTHEAST WISCONSIN

CITY           SKY/WX    TMP DP  RH WIND       PRES   REMARKS
MILWAUKEE      CLOUDY    30  23  75 NW16G25   29.84R WCI  19
WAUKESHA       CLOUDY    27  21  80 NW12G20   29.86R WCI  16
MILWAUKEE/TIMM CLOUDY    28  19  69 NW13G23   29.85R WCI  18
RACINE         CLOUDY    29  24  82 NW8G20    29.86R WCI  21
BURLINGTON     CLOUDY    28  23  82 NW13      29.87R WCI  17
KENOSHA        CLOUDY    29  22  75 NW13      29.85R WCI  19
FOND DU LAC    CLOUDY    28  20  71 NW20G25   29.87R WCI  15
SHEBOYGAN      CLOUDY    28  22  78 NW17G28   29.83R WCI  16
WEST BEND      CLOUDY    28  23  80 NW18      29.85R WCI  16
JUNEAU         CLOUDY    26  22  82 NW10G17   29.88R WCI  17
$$

LSZ147-162-232000-
LAKE SUPERIOR

STATION/POSITION TIME  TEMP    WIND        PRES    WAVE
                       AIR SEA DIR/SP/G            HT/PER
                 (UTC) (F)     (DEG/KT/KT) (MB)    (FT/S)
DEVILS ISLAND    1900   24     350/  6/  7 1018.1R
SAXON HARBOR     1840   23      10/  8/ 13 1016.3R
$$

LMZ867-665-643>646-232000-
LAKE MICHIGAN

STATION/POSITION TIME  TEMP    WIND        PRES    WAVE
                       AIR SEA DIR/SP/G            HT/PER
                 (UTC) (F)     (DEG/KT/KT) (MB)    (FT/S)
NORTHPORT PIER   1840   27     340/  7/ 10 1009.5R
KEWAUNEE LAKESHO 1900   29     330/ 14/ 21 1009.3
SHEBOYGAN LAKESH 1900   28     320/ 18/ 22 1010.9R
PORT WASHINGTON  1830   28     320/ 14/ 19 1011.2R
MILWAUKEE LAKESH 1900   29     300/ 12/ 17   N/A
KENOSHA   LAKESH 1900   28     320/  9/ 14 1011.2
$$

TC  - TEMPERATURE IN CELSIUS
VSB - VISIBILITY IN STATUTE MILES
WCI - WIND CHILL INDEX
HX  - HEAT INDEX




USA.gov is the U.S. government's official web portal to all federal, state and local government web resources and services.